Weather History for Blackwell, OK

Change the Weather History Date:

Monday, January 13, 2014

  Actual Average (KPNC) Record (KPNC)
Temperature  
Mean Temperature 44 °F -  
Max Temperature 57 °F 48 °F 67 °F (1952)
Min Temperature 32 °F 20 °F 0 °F (1963)
Degree Days  
Heating Degree Days 20    
Moisture  
Dew Point 26 °F    
Average Humidity 56    
Maximum Humidity 81    
Minimum Humidity 25    
Precipitation  
Precipitation 0.00 in - - ()
Sea Level Pressure  
Sea Level Pressure 29.91 in    
Wind  
Wind Speed 10 mph (West)    
Max Wind Speed 17 mph    
Max Gust Speed 24 mph    
Visibility 10 miles    
Events      
Averages and records for this station are not official NWS values.
T = Trace of Precipitation, MM = Missing Value Source: NWS Daily Summary

Daily Weather History Graph

Daily Weather History Graph

Search for Another Location

Airport:

Trip Planner

Search our weather history database for the weather conditions in past years. The results will help you decide how hot, cold, wet, or windy it might be!

Date:

Astronomy

Jan. 13, 2014 Rise Set
Actual Time 7:41 AM CST 5:35 PM CST
Civil Twilight 7:13 AM CST 6:03 PM CST
Nautical Twilight 6:41 AM CST 6:35 PM CST
Astronomical Twilight 6:10 AM CST 7:06 PM CST
Moon 3:50 PM CST (1/13) 5:31 AM CST (1/13)
Length of Visible Light 10h 50m
Length of Day
9h 53m
Waxing Gibbous, 95% of the Moon is Illuminated
Jan 13
Waxing Gibbous
Jan 15
Full
Jan 23
Last Quarter
Jan 30
New
Feb 6
First Quarter

Hourly Weather History & Observations

Time (CST) Temp. Windchill Dew Point Humidity Pressure Visibility Wind Dir Wind Speed Gust Speed Precip Events Conditions
12:15 AM 44.6 °F 39.2 °F 32.0 °F 61% 29.77 in 10.0 mi NW 10.4 mph - N/A   Mostly Cloudy
12:35 AM 41.0 °F 37.1 °F 32.0 °F 70% 29.77 in 10.0 mi NNW 5.8 mph - N/A   Mostly Cloudy
12:55 AM 41.0 °F 38.0 °F 32.0 °F 70% 29.78 in 10.0 mi NW 4.6 mph - N/A   Overcast
1:15 AM 37.4 °F 30.8 °F 30.2 °F 75% 29.79 in 10.0 mi WSW 9.2 mph - N/A   Mostly Cloudy
1:35 AM 37.4 °F 30.3 °F 32.0 °F 81% 29.79 in 10.0 mi West 10.4 mph - N/A   Mostly Cloudy
1:55 AM 37.4 °F 29.8 °F 32.0 °F 81% 29.80 in 10.0 mi West 11.5 mph - N/A   Overcast
2:15 AM 37.4 °F 29.3 °F 30.2 °F 75% 29.81 in 10.0 mi West 12.7 mph - N/A   Mostly Cloudy
2:35 AM 37.4 °F 29.3 °F 30.2 °F 75% 29.82 in 10.0 mi West 12.7 mph - N/A   Mostly Cloudy
2:55 AM 39.2 °F 32.0 °F 30.2 °F 70% 29.83 in 10.0 mi West 11.5 mph - N/A   Mostly Cloudy
3:15 AM 39.2 °F 32.0 °F 28.4 °F 65% 29.83 in 10.0 mi West 11.5 mph - N/A   Scattered Clouds
3:35 AM 37.4 °F 30.3 °F 28.4 °F 70% 29.84 in 10.0 mi West 10.4 mph - N/A   Mostly Cloudy
3:55 AM 35.6 °F 28.0 °F 28.4 °F 75% 29.84 in 10.0 mi West 10.4 mph - N/A   Mostly Cloudy
4:15 AM 37.4 °F 30.3 °F 28.4 °F 70% 29.85 in 10.0 mi WNW 10.4 mph - N/A   Mostly Cloudy
4:35 AM 37.4 °F 30.3 °F 26.6 °F 65% 29.86 in 10.0 mi West 10.4 mph - N/A   Scattered Clouds
4:55 AM 35.6 °F 28.0 °F 26.6 °F 70% 29.86 in 10.0 mi WNW 10.4 mph - N/A   Partly Cloudy
5:15 AM 35.6 °F 28.0 °F 26.6 °F 70% 29.86 in 10.0 mi WNW 10.4 mph - N/A   Clear
5:35 AM 33.8 °F 25.8 °F 24.8 °F 70% 29.87 in 10.0 mi West 10.4 mph - N/A   Clear
5:55 AM 32.0 °F 23.0 °F 24.8 °F 75% 29.88 in 10.0 mi West 11.5 mph - N/A   Clear
6:15 AM 32.0 °F 23.6 °F 24.8 °F 75% 29.88 in 10.0 mi WNW 10.4 mph - N/A   Clear
6:35 AM 32.0 °F 23.0 °F 24.8 °F 75% 29.89 in 10.0 mi WNW 11.5 mph - N/A   Clear
6:55 AM 32.0 °F 23.6 °F 26.6 °F 80% 29.91 in 10.0 mi WNW 10.4 mph - N/A   Clear
7:15 AM 32.0 °F 23.0 °F 26.6 °F 80% 29.91 in 10.0 mi WNW 11.5 mph - N/A   Clear
7:35 AM 32.0 °F 23.0 °F 26.6 °F 80% 29.93 in 10.0 mi West 11.5 mph - N/A   Clear
7:55 AM 32.0 °F 23.6 °F 24.8 °F 75% 29.93 in 10.0 mi West 10.4 mph - N/A   Clear
8:15 AM 32.0 °F 23.0 °F 26.6 °F 80% 29.95 in 10.0 mi WNW 11.5 mph - N/A   Clear
8:35 AM 33.8 °F 25.3 °F 26.6 °F 75% 29.96 in 10.0 mi West 11.5 mph - N/A   Clear
8:55 AM 35.6 °F 28.0 °F 26.6 °F 70% 29.96 in 10.0 mi WNW 10.4 mph - N/A   Clear
9:15 AM 37.4 °F 29.3 °F 26.6 °F 65% 29.97 in 10.0 mi WNW 12.7 mph - N/A   Clear
9:35 AM 39.2 °F 33.0 °F 28.4 °F 65% 29.99 in 10.0 mi NW 9.2 mph - N/A   Clear
9:55 AM 41.0 °F 33.1 °F 28.4 °F 61% 29.99 in 10.0 mi NW 15.0 mph 19.6 mph N/A   Clear
10:15 AM 44.6 °F 38.4 °F 28.4 °F 53% 30.00 in 10.0 mi NW 12.7 mph - N/A   Clear
10:35 AM 44.6 °F 38.4 °F 28.4 °F 53% 30.00 in 10.0 mi NW 12.7 mph - N/A   Clear
10:55 AM 46.4 °F 41.1 °F 28.4 °F 50% 30.00 in 10.0 mi NW 11.5 mph - N/A   Clear
11:15 AM 48.2 °F - 28.4 °F 46% 30.00 in 10.0 mi NW 10.4 mph - N/A   Clear
11:35 AM 48.2 °F - 28.4 °F 46% 29.99 in 10.0 mi NW 10.4 mph - N/A   Clear
11:55 AM 50.0 °F - 28.4 °F 43% 29.99 in 10.0 mi NW 9.2 mph - N/A   Clear
12:15 PM 50.0 °F - 28.4 °F 43% 29.98 in 10.0 mi West 12.7 mph 16.1 mph N/A   Clear
12:35 PM 53.6 °F - 28.4 °F 38% 29.97 in 10.0 mi West 11.5 mph 16.1 mph N/A   Clear
12:55 PM 53.6 °F - 26.6 °F 35% 29.97 in 10.0 mi WNW 11.5 mph 19.6 mph N/A   Clear
1:15 PM 53.6 °F - 26.6 °F 35% 29.95 in 10.0 mi West 15.0 mph 18.4 mph N/A   Clear
1:35 PM 55.4 °F - 26.6 °F 33% 29.95 in 10.0 mi West 13.8 mph 20.7 mph N/A   Clear
1:55 PM 55.4 °F - 24.8 °F 31% 29.94 in 10.0 mi West 16.1 mph - N/A   Clear
2:15 PM 55.4 °F - 24.8 °F 31% 29.93 in 10.0 mi West 17.3 mph 21.9 mph N/A   Clear
2:35 PM 55.4 °F - 24.8 °F 31% 29.93 in 10.0 mi West 13.8 mph 23.0 mph N/A   Clear
2:55 PM 55.4 °F - 23.0 °F 29% 29.93 in 10.0 mi West 16.1 mph 20.7 mph N/A   Clear
3:15 PM 57.2 °F - 21.2 °F 25% 29.93 in 10.0 mi West 16.1 mph 24.2 mph N/A   Clear
3:35 PM 55.4 °F - 19.4 °F 25% 29.93 in 10.0 mi West 17.3 mph - N/A   Clear
3:55 PM 55.4 °F - 23.0 °F 29% 29.93 in 10.0 mi WSW 16.1 mph - N/A   Clear
4:15 PM 55.4 °F - 23.0 °F 29% 29.93 in 10.0 mi WSW 13.8 mph - N/A   Clear
4:35 PM 55.4 °F - 19.4 °F 25% 29.93 in 10.0 mi West 11.5 mph - N/A   Clear
4:55 PM 53.6 °F - 23.0 °F 30% 29.93 in 10.0 mi WSW 9.2 mph - N/A   Clear
5:15 PM 50.0 °F - 23.0 °F 35% 29.93 in 10.0 mi WSW 8.1 mph - N/A   Clear
5:35 PM 46.4 °F 42.9 °F 24.8 °F 43% 29.93 in 10.0 mi WSW 6.9 mph - N/A   Clear
5:55 PM 44.6 °F 40.7 °F 23.0 °F 43% 29.93 in 10.0 mi SW 6.9 mph - N/A   Clear
6:15 PM 41.0 °F 36.4 °F 23.0 °F 49% 29.92 in 10.0 mi SW 6.9 mph - N/A   Clear
6:35 PM 41.0 °F 37.1 °F 21.2 °F 45% 29.92 in 10.0 mi SSW 5.8 mph - N/A   Clear
6:55 PM 39.2 °F 34.2 °F 21.2 °F 49% 29.92 in 10.0 mi SSW 6.9 mph - N/A   Clear
7:15 PM 39.2 °F 35.0 °F 23.0 °F 52% 29.92 in 10.0 mi SSW 5.8 mph - N/A   Clear
7:35 PM 37.4 °F 32.8 °F 23.0 °F 56% 29.92 in 10.0 mi SSW 5.8 mph - N/A   Clear
7:55 PM 35.6 °F 30.7 °F 23.0 °F 60% 29.91 in 10.0 mi SSW 5.8 mph - N/A   Clear
8:15 PM 35.6 °F 29.2 °F 23.0 °F 60% 29.91 in 10.0 mi SSW 8.1 mph - N/A   Clear
8:35 PM 35.6 °F 28.0 °F 23.0 °F 60% 29.91 in 10.0 mi SSW 10.4 mph - N/A   Clear
8:55 PM 37.4 °F 29.8 °F 23.0 °F 56% 29.91 in 10.0 mi SSW 11.5 mph - N/A   Clear
9:15 PM 37.4 °F 29.8 °F 23.0 °F 56% 29.90 in 10.0 mi SSW 11.5 mph - N/A   Clear
9:35 PM 37.4 °F 30.8 °F 23.0 °F 56% 29.90 in 10.0 mi SW 9.2 mph - N/A   Clear
9:55 PM 35.6 °F 30.7 °F 23.0 °F 60% 29.90 in 10.0 mi WSW 5.8 mph - N/A   Clear
10:15 PM 35.6 °F 28.6 °F 21.2 °F 56% 29.91 in 10.0 mi SW 9.2 mph - N/A   Clear
10:35 PM 35.6 °F 28.0 °F 21.2 °F 56% 29.90 in 10.0 mi SW 10.4 mph - N/A   Mostly Cloudy
10:55 PM 35.6 °F 28.6 °F 21.2 °F 56% 29.90 in 10.0 mi SW 9.2 mph - N/A   Overcast
11:15 PM 35.6 °F 29.2 °F 21.2 °F 56% 29.90 in 10.0 mi SW 8.1 mph - N/A   Overcast
11:35 PM 35.6 °F 29.2 °F 19.4 °F 52% 29.90 in 10.0 mi SW 8.1 mph - N/A   Overcast
11:55 PM 35.6 °F 28.6 °F 19.4 °F 52% 29.90 in 10.0 mi SW 9.2 mph - N/A   Overcast